Location: Carri�res
(48.9069°N, 2.1792°E)
Time: 21:05:54
(UTC+00:00)

CSL-04 Rocket - Pass Details

Date: 17 January 2021
Orbit: 806 x 860 km, 98.9° (Epoch: 02 March)

Event Time Altitude Azimuth Distance (km) Brightness Sun altitude
Rises 17:43:16 0° 130° (SE) 3,352 6.5 -12.5°
Reaches altitude 10° 17:45:51 10° 120° (ESE) 2,431 5.7 -12.9°
Maximum altitude 17:50:28 30° 61° (ENE) 1,459 4.4 -13.6°
Drops below altitude 10° 17:55:10 10° 2° (N) 2,475 6.0 -14.4°
Sets 17:57:47 0° 352° (N) 3,423 6.8 -14.8°
